Regional Weather Roundup
Issued by NWS Boston, MA

Current Version | Previous Version | Text Only | Print | Product List | Glossary Off
Versions: 1 2 3 4 5 6 7 8 9 10 11 12 13 14 15 16 17 18 19 20 21 22 23 24 25 26 27

000
ASUS41 KBOX 262010
RWRBOX

REGIONAL WEATHER ROUNDUP
NATIONAL WEATHER SERVICE TAUNTON MA
400 PM EDT WED APR 26 2017

NOTE:  "FAIR" INDICATES FEW OR NO CLOUDS BELOW 12,000 FEET WITH NO
SIGNIFICANT WEATHER AND/OR OBSTRUCTIONS TO VISIBILITY.

MAZALL-262100-
EASTERN MASSACHUSETTS

CITY           SKY/WX    TMP DP  RH WIND       PRES   REMARKS
BOSTON         LGT RAIN  53  53 100 NE6       29.82F VSB 1/4
BEVERLY        FOG       55  55 100 SE7       29.83F VSB 1/2
LAWRENCE       CLOUDY    59  57  93 NE8       29.85F
BEDFORD        CLOUDY    60  56  86 N7        29.81F
BLUE HILL        N/A     59  57  93 NE6       29.80F
NORWOOD        CLOUDY    62  61  96 NE5       29.80F FOG
MARSHFIELD     FOG       55  55 100 SE8       29.81F VSB<1/4
PLYMOUTH       CLOUDY    60  59  96 SE7       29.80F FOG
TAUNTON        LGT RAIN  60  59  96 E6        29.79F FOG
NEW BEDFORD    LGT RAIN  58  57  97 E6        29.78F FOG
$$

MAZALL-262100-
CAPE COD AND THE ISLANDS

CITY           SKY/WX    TMP DP  RH WIND       PRES   REMARKS
FALMOUTH       FOG       55  55 100 MISG      29.81F VSB 1/2
HYANNIS        LGT RAIN  54  54 100 SE9G17    29.79S VSB 1/2
CHATHAM        FOG       54  54 100 SE12G18   29.81F VSB 1/2
PROVINCETOWN   CLOUDY    56  55  97 SE12      29.83S FOG
NANTUCKET      FOG       54  53  97 SE20      29.77F VSB 1/4
MARTHAS VNYRD  FOG       56  55  97 SE16      29.78S VSB 1/4
$$

MAZALL-262100-
CENTRAL AND WESTERN MASSACHUSETTS

CITY           SKY/WX    TMP DP  RH WIND       PRES   REMARKS
WORCESTER      FOG       54  53  97 NE7       29.81F VSB 1/4
FITCHBURG      CLOUDY    57  55  93 N7        29.84F
ORANGE         CLOUDY    58  55  90 N7        29.83F
SPRINGFIELD    CLOUDY    60  55  83 N10       29.79F
WESTFIELD      CLOUDY    59  55  87 N14       29.80F
NORTH ADAMS    CLOUDY    63  54  72 E13       29.80F
PITTSFIELD     CLOUDY    62  53  72 E8        29.79F
$$

RIZALL-262100-
RHODE ISLAND

CITY           SKY/WX    TMP DP  RH WIND       PRES   REMARKS
PROVIDENCE     LGT RAIN  60  60 100 NE5       29.79F
NEWPORT        LGT RAIN  56  56 100 CALM      29.78F FOG
BLOCK ISLAND   LGT RAIN  52  52 100 N6        29.77F VSB 3/4
SMITHFIELD     LGT RAIN  58  57  97 N6        29.80F FOG
WESTERLY       CLOUDY    60  59  96 NE7       29.77F FOG
$$

CTZALL-262100-
CONNECTICUT

CITY           SKY/WX    TMP DP  RH WIND       PRES   REMARKS
BRADLEY INTL   CLOUDY    61  55  81 N10       29.79F
HARTFORD       CLOUDY    61  55  81 N12       29.78F
BRIDGEPORT     CLOUDY    65  56  72 NE8       29.76F
DANBURY        CLOUDY    60  56  86 E5        29.78F
GROTON         CLOUDY    60  58  92 NE8       29.76F FOG
NEW HAVEN      CLOUDY    62  56  80 NE12      29.76F
CHESTER        CLOUDY    61  57  88 NE8       29.77S
MERIDEN        CLOUDY    62  55  77 N9        29.78F
WILLIMANTIC    CLOUDY    62  57  83 NE9       29.78F
OXFORD         CLOUDY    59  52  77 NE10G16   29.79F
$$

MEZ002-015-021-024-NHZ003-005-008-011-012-014-VTZ005-008-262100-
NORTHERN NEW ENGLAND

CITY           SKY/WX    TMP DP  RH WIND       PRES   REMARKS
PORTLAND ME    LGT RAIN  53  52  96 VRB5      29.91F FOG
BANGOR ME      LGT RAIN  57  56  96 S9        29.98F FOG
CONCORD NH     CLOUDY    56  55  97 N5        29.86F FOG
MANCHESTER NH  CLOUDY    57  53  86 N8        29.83F
NASHUA NH      CLOUDY    56  55  97 N5        29.84F
PORTSMOUTH NH  DRZL/FOG  54  53  99 E7        29.85F VSB 3/4
JAFFREY NH     CLOUDY    55  55 100 VRB5      29.85F FOG
KEENE NH       CLOUDY    57  54  89 N6        29.84F
BURLINGTON VT  CLOUDY    70  55  59 SE16      29.80F
MT. WASHINGTON FOG       45  45 100 SE38G46     N/A  VSB 1/16
$$

NYZ052-076-262100-
EASTERN NEW YORK

CITY           SKY/WX    TMP DP  RH WIND       PRES   REMARKS
ALBANY         PTSUNNY   69  57  65 VRB3      29.77F
NEW YORK CITY  CLOUDY    60  56  86 NE12G23   29.76F FOG
$$

ANZALL-262100-
MARINE OBSERVATIONS

STATION/POSITION TIME  TEMP    WIND        PRES    VSBY  WAVE
                       AIR SEA DIR/SP/G                  HT/PER
                 (UTC) (F)     (DEG/KT/KT) (MB)    (MI)  (FT/S)
BOSTON BUOY      1850   49 47   90/  8/ 12 1009.7          5/ 7
BUZZARDS BAY     2000   53     120/ 14/ 14 1008.3F
NANTUCKET SOUND  1950      47              1008.1F         3/ 4
MASS BAY-STELLWA 1904   48 45  110/  8/  8 1010.2F         6/ 7
ISLE OF SHOALS   2000   50      70/  7/  8 1010.9F
S OF BLOCK IS    1955      47                N/A          10/11
$$

......................KEY.........................
  SKY/WX - SKY CONDITION/PRESENT WEATHER
  TMP    - TEMPERATURE IN FAHRENHEIT
  DWPT   - DEWPOINT IN FAHRENHEIT
  RH     - RELATIVE HUMIDITY IN PERCENT
  WIND   - DIRECTION AND SPEED IN MPH
  PRES   - MEAN SEA LEVEL PRESSURE IN INCHES OF HG
  WCI    - WIND CHILL INDEX
  VSB    - VISIBILITY IN MILES
  HX     - HEAT INDEX
  TC     - TEMPERATURE IN CELSIUS
  VRB    - VARIABLE WIND DIRECTION
  N/A    - NOT AVAILABLE




USA.gov is the U.S. government's official web portal to all federal, state and local government web resources and services.